Tiempo cada hora Godzieszowek

Hoy, 30 Noviembre, Lunes

Tiempo Temperatura Precipitaciones Viento Presión Humedad
00:00 +1°C° 0.2 mm 1 mps 746 mmHg 97%
01:00 +1°C° 0 mm 1 mps 746 mmHg 96%
02:00 +1°C° 0.1 mm 1 mps 746 mmHg 96%
03:00 +1°C° 0.1 mm 1 mps 746 mmHg 96%
04:00 +1°C° 0.1 mm 1 mps 746 mmHg 97%
05:00 +1°C° 0.1 mm 1 mps 746 mmHg 97%
06:00 -1°C° 0.1 mm 2 mps 747 mmHg 96%
07:00 +1°C° 0.1 mm 2 mps 747 mmHg 96%
08:00 +1°C° 0.1 mm 2 mps 747 mmHg 94%
09:00 +1°C° 0.1 mm 2 mps 747 mmHg 91%
10:00 0°C° 0.1 mm 3 mps 748 mmHg 88%
11:00 +1°C° 0 mm 2 mps 747 mmHg 85%
12:00 +2°C° 0 mm 2 mps 747 mmHg 83%
13:00 +2°C° 0 mm 2 mps 747 mmHg 80%
14:00 +2°C° 0 mm 2 mps 746 mmHg 81%
15:00 +1°C° 0 mm 2 mps 746 mmHg 83%
16:00 +2°C° 0 mm 1 mps 746 mmHg 85%
17:00 -1°C° 0 mm 2 mps 746 mmHg 86%
18:00 -1°C° 0 mm 2 mps 745 mmHg 87%
19:00 -1°C° 0 mm 2 mps 745 mmHg 88%
20:00 -1°C° 0 mm 3 mps 745 mmHg 87%
21:00 -2°C° 0 mm 3 mps 745 mmHg 86%
22:00 -2°C° 0 mm 3 mps 744 mmHg 85%
23:00 -2°C° 0 mm 3 mps 744 mmHg 85%

Mañana, 1 Diciembre, Martes

Tiempo Temperatura Precipitaciones Viento Presión Humedad
00:00 -2°C° 0 mm 3 mps 744 mmHg 84%
01:00 -2°C° 0 mm 3 mps 743 mmHg 84%
02:00 -2°C° 0 mm 3 mps 743 mmHg 85%
03:00 -2°C° 0 mm 3 mps 742 mmHg 85%
04:00 -2°C° 0 mm 3 mps 742 mmHg 85%
05:00 -2°C° 0 mm 3 mps 742 mmHg 85%
06:00 -2°C° 0 mm 3 mps 742 mmHg 85%
07:00 -2°C° 0 mm 3 mps 742 mmHg 85%
08:00 -2°C° 0 mm 3 mps 742 mmHg 82%
09:00 -1°C° 0 mm 3 mps 742 mmHg 79%
10:00 -1°C° 0 mm 4 mps 742 mmHg 77%
11:00 0°C° 0 mm 3 mps 742 mmHg 75%
12:00 +1°C° 0 mm 3 mps 742 mmHg 74%
13:00 +1°C° 0 mm 3 mps 742 mmHg 72%
14:00 0°C° 0 mm 3 mps 742 mmHg 76%
15:00 0°C° 0 mm 3 mps 742 mmHg 79%
16:00 -1°C° 0 mm 2 mps 742 mmHg 83%
17:00 -2°C° 0 mm 2 mps 743 mmHg 84%
18:00 -2°C° 0 mm 3 mps 743 mmHg 84%
19:00 -2°C° 0 mm 3 mps 744 mmHg 85%
20:00 -2°C° 0 mm 2 mps 744 mmHg 85%
21:00 -2°C° 0 mm 2 mps 744 mmHg 86%
22:00 -3°C° 0 mm 2 mps 744 mmHg 86%
23:00 -3°C° 0 mm 2 mps 745 mmHg 86%

Pasado mañana, 2 Diciembre, Miércoles

Tiempo Temperatura Precipitaciones Viento Presión Humedad
00:00 -3°C° 0 mm 2 mps 745 mmHg 86%
01:00 -3°C° 0 mm 2 mps 745 mmHg 86%
02:00 -1°C° 0 mm 1 mps 745 mmHg 86%
03:00 -1°C° 0 mm 1 mps 744 mmHg 86%
04:00 -1°C° 0 mm 1 mps 744 mmHg 86%
05:00 -1°C° 0 mm 1 mps 744 mmHg 85%
06:00 -2°C° 0 mm 1 mps 744 mmHg 84%
07:00 -2°C° 0 mm 1 mps 744 mmHg 84%
08:00 -1°C° 0 mm 1 mps 744 mmHg 79%
09:00 0°C° 0 mm 1 mps 744 mmHg 75%
10:00 +1°C° 0 mm 1 mps 744 mmHg 71%
11:00 -1°C° 0 mm 2 mps 743 mmHg 68%
12:00 +1°C° 0 mm 2 mps 743 mmHg 65%
13:00 +2°C° 0 mm 2 mps 743 mmHg 62%
14:00 +1°C° 0 mm 2 mps 742 mmHg 67%
15:00 -1°C° 0 mm 2 mps 742 mmHg 72%
16:00 -2°C° 0 mm 2 mps 741 mmHg 77%
17:00 -3°C° 0 mm 2 mps 741 mmHg 76%
18:00 -3°C° 0 mm 2 mps 741 mmHg 76%
19:00 -3°C° 0 mm 2 mps 741 mmHg 75%
20:00 -3°C° 0 mm 2 mps 741 mmHg 73%
21:00 -3°C° 0 mm 2 mps 741 mmHg 71%
22:00 -3°C° 0 mm 2 mps 740 mmHg 68%
23:00 -3°C° 0 mm 2 mps 740 mmHg 67%

3 Diciembre, Jueves

Tiempo Temperatura Precipitaciones Viento Presión Humedad
00:00 -3°C° 0 mm 2 mps 740 mmHg 66%
01:00 -3°C° 0 mm 2 mps 739 mmHg 64%
02:00 -3°C° 0 mm 2 mps 739 mmHg 65%
03:00 -3°C° 0 mm 2 mps 739 mmHg 65%
04:00 -3°C° 0 mm 2 mps 738 mmHg 65%
05:00 -4°C° 0 mm 3 mps 738 mmHg 66%
06:00 -4°C° 0 mm 3 mps 738 mmHg 67%
07:00 -4°C° 0 mm 3 mps 738 mmHg 68%
08:00 -2°C° 0 mm 3 mps 737 mmHg 68%
09:00 -2°C° 0 mm 3 mps 737 mmHg 67%
10:00 -1°C° 0 mm 3 mps 737 mmHg 66%
11:00 0°C° 0 mm 3 mps 737 mmHg 66%
12:00 0°C° 0 mm 3 mps 736 mmHg 66%
13:00 0°C° 0 mm 3 mps 736 mmHg 66%
14:00 0°C° 0 mm 3 mps 735 mmHg 70%
15:00 0°C° 0 mm 3 mps 735 mmHg 74%
16:00 -1°C° 0 mm 3 mps 734 mmHg 78%
17:00 -1°C° 0 mm 3 mps 734 mmHg 76%
18:00 -1°C° 0 mm 3 mps 734 mmHg 75%
19:00 0°C° 0 mm 3 mps 733 mmHg 74%
20:00 0°C° 0 mm 3 mps 733 mmHg 74%
21:00 0°C° 0 mm 3 mps 732 mmHg 74%
22:00 0°C° 0 mm 3 mps 732 mmHg 74%
23:00 0°C° 0 mm 3 mps 731 mmHg 75%

4 Diciembre, Viernes

Tiempo Temperatura Precipitaciones Viento Presión Humedad
00:00 0°C° 0 mm 3 mps 731 mmHg 76%
01:00 0°C° 0 mm 3 mps 730 mmHg 78%
02:00 0°C° 0 mm 3 mps 729 mmHg 80%
03:00 -1°C° 0 mm 3 mps 729 mmHg 82%
04:00 -1°C° 0 mm 3 mps 728 mmHg 84%
05:00 0°C° 0 mm 3 mps 727 mmHg 83%
06:00 0°C° 0 mm 3 mps 727 mmHg 83%
07:00 +1°C° 0 mm 3 mps 727 mmHg 83%
08:00 0°C° 0 mm 4 mps 727 mmHg 82%
09:00 +1°C° 0 mm 4 mps 726 mmHg 80%
10:00 +1°C° 0 mm 4 mps 726 mmHg 79%
11:00 +2°C° 0 mm 5 mps 726 mmHg 78%
12:00 +2°C° 0 mm 5 mps 725 mmHg 77%
13:00 +3°C° 0 mm 6 mps 725 mmHg 76%
14:00 +2°C° 0 mm 5 mps 724 mmHg 80%
15:00 +3°C° 0 mm 4 mps 724 mmHg 84%
16:00 +2°C° 0 mm 3 mps 724 mmHg 88%
17:00 +2°C° 0 mm 3 mps 724 mmHg 87%
18:00 +1°C° 0 mm 4 mps 724 mmHg 87%
19:00 +1°C° 0 mm 4 mps 724 mmHg 86%
20:00 +1°C° 0 mm 4 mps 724 mmHg 86%
21:00 +1°C° 0 mm 5 mps 724 mmHg 86%
22:00 +1°C° 0 mm 5 mps 724 mmHg 86%
23:00 +1°C° 0 mm 4 mps 724 mmHg 87%

5 Diciembre, Sábado

Tiempo Temperatura Precipitaciones Viento Presión Humedad
00:00 +1°C° 0 mm 4 mps 724 mmHg 87%
01:00 +1°C° 0 mm 4 mps 723 mmHg 87%
02:00 +1°C° 0 mm 4 mps 723 mmHg 87%
03:00 +1°C° 0 mm 4 mps 723 mmHg 87%
04:00 +3°C° 0 mm 4 mps 723 mmHg 86%
05:00 +2°C° 0 mm 5 mps 723 mmHg 85%
06:00 +2°C° 0 mm 5 mps 722 mmHg 84%
07:00 +3°C° 0 mm 6 mps 722 mmHg 83%
08:00 +4°C° 0 mm 6 mps 723 mmHg 82%
09:00 +4°C° 0 mm 6 mps 724 mmHg 80%
10:00 +5°C° 0 mm 7 mps 724 mmHg 78%
11:00 +5°C° 0.1 mm 7 mps 724 mmHg 77%
12:00 +7°C° 0.1 mm 6 mps 725 mmHg 76%
13:00 +7°C° 0.1 mm 6 mps 725 mmHg 75%
14:00 +6°C° 0.2 mm 5 mps 726 mmHg 79%
15:00 +6°C° 0.2 mm 4 mps 726 mmHg 82%
16:00 +5°C° 0.2 mm 3 mps 726 mmHg 86%
17:00 +6°C° 0.2 mm 2 mps 726 mmHg 87%
18:00 +5°C° 0.2 mm 2 mps 726 mmHg 89%
19:00 +6°C° 0.2 mm 1 mps 726 mmHg 90%
20:00 +6°C° 0.3 mm 1 mps 726 mmHg 91%
21:00 +6°C° 0.3 mm 1 mps 726 mmHg 92%
22:00 +5°C° 0.3 mm 1 mps 726 mmHg 93%
23:00 +5°C° 1.7 mm 1 mps 726 mmHg 95%
Mostrar más

Necesitamos Su Consentimiento

Meteoprog y nuestros Proveedores de Servicios pueden almacenar y acceder a sus datos personales como cookies, identificadores de dispositivo u otras tecnologías similares de su dispositivo y procesar dichos datos para personalizar contenido y anuncios, además de ofrecer funciones de redes sociales y analizar el tráfico.

  • Almacenar y/o acceder a información en su dispositivo

    Se puede almacenar o acceder a cookies, identificadores de dispositivo u otra información de su dispositivo para los fines anteriormente indicados.

  • Anuncios y contenido personalizados, medición de anuncios y contenido, percepciones del público, y desarrollo de productos

    Los anuncios y el contenido pueden personalizarse en base a su perfil. Se pueden añadir más datos para personalizar mejor los anuncios y contenidos. Se puede medir el rendimiento de los anuncios y contenidos. Se puede obtener la percepción sobre el público que ha visto los anuncios y contenidos. Dichos datos pueden usarse para desarrollar o mejorar la experiencia del usuario, sistemas y software.

Al hacer clic en ‘Estoy De Acuerdo’ usted permitirá el uso de las cookies, identificadores de dispositivo, balizas web u otras tecnologías similares indicadas. Su configuración puede cambiarse desde el navegador de su dispositivo.

Para ciertos fines, los intereses legítimos pueden ser considerados por encima del consentimiento. Puede leer más sobre ello en nuestra Política de Privacidad y Cookies.